sat.trackr.live / text

‹ back to catalog

IRIDIUM 164

NORAD 43577 · 2018-061J

PAYLOAD ACTIVE UNKNOWN

§ Identity

Operator
Country
US
Launch date
2018-07-25
Launch site
AFWTR
Launch vehicle
Mass (kg)
RCS (m²)

Purposes: comms

External: N2YO · Heavens-Above · Gunter

§ Orbital elements

Epoch: 2026-05-25T03:28:11.044992Z

Period
100.40 min
Inclination
86.3969°
Eccentricity
0.0002057
Mean motion
14.34219782 rev/d
Perigee alt
776.2 km
Apogee alt
779.1 km
Semi-major
7,155.8 km
B*
7.3614e-5
RAAN
66.4024°
Arg perigee
84.5565°
Mean anomaly
275.5865°
Rev number
41,011

§ Raw data

IRIDIUM 1641 43577U 18061J   26145.14457228  .00000226  00000+0  73614-4 0  99972 43577  86.3969  66.4024 0002057  84.5565 275.5865 14.34219782410114

JSON: /api/v1/satellites/43577 · /tle

For live sub-satellite position, see the globe view (requires WebGL).

§ Visibility from observer

Set your observer location to see the next 7 days of passes ≥ 10°. The values pass through the URL so the page stays shareable.

No JS? Fill the form by hand. The geolocation button needs JavaScript.